Location: Scenic
(43.7797°N, 102.5549°W)
Time: 04:27:01
(UTC-06:00)

OTV 5 (USA 277) - Visible Passes

Search period start: 20 April 2018 00:00
Search period end: 30 April 2018 00:00
Orbit: 350 x 361 km, 54.5° (Epoch: 18 April)

Date Brightness Start Highest point End Pass type
(mag) Time Alt. Az. Time Alt. Az. Time Alt. Az.
20 Apr ? 20:35:11 10° WSW 20:38:07 52° NW 20:41:03 10° NE visible
20 Apr ? 22:12:07 10° NW 22:13:49 14° NNW 22:15:24 11° NNE visible
21 Apr ? 21:03:28 10° WNW 21:05:54 22° NNW 21:08:20 10° NNE visible
21 Apr ? 22:41:00 10° NNW 22:41:56 11° N 22:42:19 11° N visible
22 Apr ? 21:32:17 10° NW 21:33:53 14° NNW 21:35:31 10° NNE visible
22 Apr ? 23:08:55 10° NNW 23:09:02 10° NNW 23:09:02 10° NNW visible
23 Apr ? 20:23:36 10° WNW 20:25:57 21° NNW 20:28:18 10° NNE visible
23 Apr ? 22:01:07 10° NNW 22:02:01 11° N 22:02:55 10° NNE visible
24 Apr ? 20:52:26 10° NW 20:53:58 13° NNW 20:55:30 10° NNE visible
24 Apr ? 22:28:54 10° NNW 22:30:10 12° N 22:30:29 12° NNE visible
25 Apr ? 21:21:12 10° NNW 21:22:05 11° N 21:22:58 10° NNE visible
25 Apr ? 22:56:06 10° NNW 22:56:57 14° N 22:56:57 14° N visible
26 Apr ? 21:48:53 10° NNW 21:50:14 12° N 21:51:34 10° NE visible
26 Apr ? 23:23:19 10° NW 23:23:23 10° NW 23:23:23 10° NW visible
27 Apr ? 20:41:17 10° NNW 20:42:10 11° N 20:43:03 10° NNE visible
27 Apr ? 22:16:05 10° NNW 22:18:10 18° NNE 22:18:10 18° NNE visible
28 Apr ? 21:08:51 10° NNW 21:10:18 13° N 21:11:44 10° NE visible
28 Apr ? 22:43:18 10° NW 22:44:36 21° NNW 22:44:36 21° NNW visible
29 Apr ? 21:36:03 10° NNW 21:38:20 19° NNE 21:39:23 16° NE visible
29 Apr ? 23:10:47 10° WNW 23:11:03 12° WNW 23:11:03 12° WNW visible
